New Bern, NC

2:32 AM EST on January 19, 2017 (GMT -0500)
Craven County Regional

Weather History for KEWN - July, 2013

Change the Weather History Date:

Monday, July 22, 2013

  Actual Average Record
Temperature  
Mean Temperature 84 °F 81 °F  
Max Temperature 92 °F 90 °F 106 °F (1952)
Min Temperature 76 °F 72 °F 60 °F (1965)
Degree Days  
Heating Degree Days 0 0  
Month to date heating degree days 0 0  
Since 1 June heating degree days 0 1  
Since 1 July heating degree days 0 0  
Cooling Degree Days 19 16  
Month to date cooling degree days 375 345  
Year to date cooling degree days 1040 953  
Since 1 June cooling degree days 784 710  
Growing Degree Days 33 (Base 50)    
Moisture  
Dew Point 75 °F    
Average Humidity 77    
Maximum Humidity 94    
Minimum Humidity 60    
Precipitation  
Precipitation 0.14 in 0.20 in 1.94 in (1988)
Month to date precipitation 2.98 4.22  
Year to date precipitation 22.54 28.20  
Snow  
Snow 0.00 in - - ()
Month to date snowfall 0.0  
Since 1 July snowfall 0.0  
Snow Depth 0.00 in    
Sea Level Pressure  
Sea Level Pressure 29.93 in    
Wind  
Wind Speed 5 mph (SW)    
Max Wind Speed 15 mph    
Max Gust Speed 29 mph    
Visibility 9 miles    
Events Rain , Thunderstorm    
T = Trace of Precipitation, MM = Missing Value Source: NWS Daily Summary

Daily Weather History Graph

Daily Weather History Graph

Search for Another Location

Airport or City:

Trip Planner

Search our weather history database for the weather conditions in past years. The results will help you decide how hot, cold, wet, or windy it might be!

Date:

Astronomy

Jul. 22, 2013 Rise Set
Actual Time 6:10 AM EDT 8:18 PM EDT
Civil Twilight 5:41 AM EDT 8:47 PM EDT
Nautical Twilight 5:06 AM EDT 9:21 PM EDT
Astronomical Twilight 4:29 AM EDT 9:59 PM EDT
Moon 8:06 PM EDT (7/22) 6:01 AM EDT (7/22)
Length of Visible Light 15h 05m
Length of Day
14h 08m
Full, 100% of the Moon is Illuminated
Jul 22
Full
Jul 22
Full
Jul 29
Last Quarter
Aug 6
New
Aug 14
First Quarter

Hourly Weather History & Observations

Time (EDT) Temp. Heat Index Dew Point Humidity Pressure Visibility Wind Dir Wind Speed Gust Speed Precip Events Conditions
12:54 AM 78.1 °F - 73.9 °F 87% 29.98 in 10.0 mi South 3.5 mph - N/A   Mostly Cloudy
1:54 AM 77.0 °F - 73.9 °F 90% 29.96 in 10.0 mi SSW 4.6 mph - N/A   Clear
2:54 AM 77.0 °F - 73.9 °F 90% 29.95 in 10.0 mi Calm Calm - N/A   Clear
3:54 AM 77.0 °F - 73.9 °F 90% 29.94 in 10.0 mi Calm Calm - N/A   Scattered Clouds
4:54 AM 75.9 °F - 73.9 °F 94% 29.94 in 10.0 mi Calm Calm - N/A   Clear
5:43 AM 75.2 °F - 73.4 °F 94% 29.94 in 10.0 mi SSW 3.5 mph - N/A   Overcast
5:54 AM 75.9 °F - 73.9 °F 94% 29.94 in 10.0 mi SSW 3.5 mph - N/A   Mostly Cloudy
6:54 AM 77.0 °F - 73.9 °F 90% 29.95 in 10.0 mi SSW 3.5 mph - N/A   Mostly Cloudy
7:54 AM 78.1 °F - 75.0 °F 90% 29.96 in 10.0 mi WSW 4.6 mph - N/A   Clear
8:54 AM 81.0 °F 87.3 °F 75.9 °F 85% 29.97 in 10.0 mi SW 5.8 mph - N/A   Scattered Clouds
9:25 AM 82.4 °F 89.5 °F 75.2 °F 79% 29.96 in 10.0 mi SW 6.9 mph - N/A   Mostly Cloudy
9:54 AM 81.0 °F 87.3 °F 75.9 °F 85% 29.97 in 10.0 mi WSW 5.8 mph - N/A   Overcast
10:12 AM 80.6 °F 86.2 °F 75.2 °F 84% 29.97 in 9.0 mi SW 5.8 mph - N/A   Overcast
10:54 AM 81.0 °F 86.7 °F 75.0 °F 82% 29.97 in 9.0 mi SW 3.5 mph - N/A   Overcast
11:21 AM 82.4 °F 89.5 °F 75.2 °F 79% 29.97 in 10.0 mi WSW 6.9 mph - N/A   Overcast
11:54 AM 84.9 °F 94.1 °F 75.9 °F 74% 29.96 in 10.0 mi WSW 4.6 mph - N/A   Overcast
12:01 PM 84.2 °F 92.3 °F 75.2 °F 74% 29.96 in 10.0 mi WSW 6.9 mph - N/A   Overcast
12:42 PM 87.8 °F 97.6 °F 75.2 °F 66% 29.95 in 10.0 mi Variable 3.5 mph - N/A   Scattered Clouds
12:51 PM 86.0 °F 95.1 °F 75.2 °F 70% 29.95 in 10.0 mi WSW 5.8 mph - N/A   Mostly Cloudy
12:54 PM 86.0 °F 95.1 °F 75.0 °F 70% 29.95 in 10.0 mi West 5.8 mph - N/A   Mostly Cloudy
1:01 PM 87.8 °F 97.6 °F 75.2 °F 66% 29.94 in 10.0 mi Variable 3.5 mph - N/A   Mostly Cloudy
1:54 PM 87.1 °F 95.4 °F 73.9 °F 65% 29.93 in 10.0 mi WSW 8.1 mph - N/A   Scattered Clouds
2:54 PM 91.0 °F 101.6 °F 75.0 °F 59% 29.90 in 10.0 mi West 9.2 mph - N/A   Clear
3:54 PM 91.0 °F 101.6 °F 75.0 °F 59% 29.89 in 10.0 mi SW 8.1 mph - N/A   Scattered Clouds
4:30 PM 80.6 °F 86.2 °F 75.2 °F 84% 29.89 in 1.8 mi SW 8.1 mph - 0.09 in Rain Heavy Rain
4:46 PM 82.4 °F 90.9 °F 77.0 °F 84% 29.88 in 5.0 mi South 4.6 mph - 0.13 in Rain , Thunderstorm Light Rain
4:54 PM 82.0 °F 90.2 °F 77.0 °F 85% 29.88 in 5.0 mi SSW 6.9 mph - 0.13 in Thunderstorm Haze
5:01 PM 82.4 °F 92.4 °F 78.8 °F 89% 29.88 in 6.0 mi South 8.1 mph - 0.00 in Rain Light Rain
5:54 PM 84.0 °F 94.8 °F 78.1 °F 82% 29.86 in 10.0 mi South 6.9 mph - 0.00 in   Clear
6:54 PM 82.9 °F 92.8 °F 78.1 °F 85% 29.86 in 10.0 mi SW 3.5 mph - N/A   Partly Cloudy
7:54 PM 82.9 °F 91.8 °F 77.0 °F 82% 29.87 in 10.0 mi South 5.8 mph - 0.01 in   Scattered Clouds
8:54 PM 81.0 °F 87.3 °F 75.9 °F 85% 29.87 in 10.0 mi SSW 6.9 mph - N/A   Partly Cloudy
9:54 PM 80.1 °F 85.4 °F 75.9 °F 87% 29.89 in 10.0 mi SSW 6.9 mph - N/A   Clear
10:54 PM 79.0 °F - 75.9 °F 90% 29.89 in 10.0 mi SSW 6.9 mph - N/A   Clear
11:54 PM 79.0 °F - 75.9 °F 90% 29.89 in 9.0 mi SSW 6.9 mph - N/A   Clear